{"data":{"norad_id":64130,"intl_designator":"2025-111H","name":"STARLINK-11735 [DTC]","alt_names":[],"object_type":"PAYLOAD","status":"ACTIVE","operator":null,"country":"US","launch_date":"2025-05-24","launch_site_code":"AFETR","launch_vehicle":null,"mission":null,"orbit_class":"UNKNOWN","rcs_meters":null,"size_class":null,"mass_kg":null,"dimensions":null,"purposes":["comms"],"wikipedia_slug":null,"has_3d_model":false,"image_url":null,"decayed_at":null,"tle_current":{"epoch":"2026-09-20T08:21:22.808160Z","epoch_age_seconds":153553,"freshness":"FRESH","line1":"1 64130U 25111H   26263.34818065  .00156616  00000+0  12012-2 0  9990","line2":"2 64130  43.0004 240.5300 0000933 280.5045  79.5718 15.70838906 77109","mean_motion":15.70838906,"eccentricity":9.33e-5,"inclination_deg":43.0004,"raan_deg":240.53,"arg_perigee_deg":280.5045,"mean_anomaly_deg":79.5718,"bstar":0.0012012,"rev_number":7710,"period_min":91.670762323225,"perigee_km":355.86984696404,"apogee_km":357.12652989021,"semimajor_km":6734.6351884271,"source":"CELESTRAK","updated_at":"2026-09-21T09:00:35.233792Z"}}}